Regional Weather Roundup
Issued by NWS Sterling, VA

Home | Current Version | Previous Version | Text Only | Print | Product List | Glossary Off
Versions: 1 2 3 4 5 6 7 8 9 10 11 12 13 14 15 16 17 18 19 20 21 22 23 24 25 26 27

000
ASUS41 KLWX 271110
RWRLWX

REGIONAL WEATHER ROUNDUP
NATIONAL WEATHER SERVICE BALTIMORE MD/WASHINGTON DC
700 AM EDT SAT AUG 27 2016

Note: "FAIR" indicates few or no clouds below 12,000 feet
with no significant weather and/or obstructions to visibility.
 TC=TEMPERATURE CELSIUS

 * =Non NWS site. Station does not report precipitation (e.g. rain,
    snow, etc.), thunder, or fog.

DCZ001-MDZ009-015-VAZ040>042-051-053>054-271200-
WASHINGTON METRO

CITY           SKY/WX    TMP DP  RH WIND       PRES   REMARKS
WASHINGTON NAT PTCLDY    79  71  76 NE5       30.15R
DULLES         PTCLDY    73  68  84 CALM      30.16R
ANDREWS AFB    MOCLDY    74  69  84 NE6       30.15R
FT BELVOIR     CLEAR     73  72  95 CALM      30.14S
QUANTICO       CLEAR     82  72  71 NE6       30.14
COLLEGE PARK*  CLEAR     70  70 100 CALM      30.15R
LEESBURG*      CLEAR     73  70  88 N6        30.18R
MANASSAS*      CLEAR     73  70  88 N6        30.15S
GAITHERSBURG*  CLEAR     68  64  88 CALM      30.21R

$$

MDZ006>007-011-014-271200-
BALTIMORE METRO

CITY           SKY/WX    TMP DP  RH WIND       PRES   REMARKS
BWI AIRPORT    PTCLDY    74  68  81 CALM      30.15R
MD SCIENCE CTR   N/A     79  65  62 MISG      30.16R
MARTIN STATE   CLEAR     72  70  94 CALM      30.17R
ANNAPOLIS      CLEAR     77  73  87 CALM      30.15R
FORT MEADE*    CLEAR    N/A N/A N/A CALM      30.18R

$$

MDZ012-015-019>023-271200-
MARYLAND EASTERN SHORE

CITY           SKY/WX    TMP DP  RH WIND       PRES   REMARKS
OCEAN CITY     CLEAR     77  67  71 NE10      30.12R
SALISBURY      CLEAR     72  69  90 CALM      30.13R
BAY BRIDGE AP* CLEAR     77  68  73 NE5       30.14R
CAMBRIDGE*     CLEAR     72  66  83 CALM      30.13R
EASTON*        CLEAR     73  72  94 E5        30.18R

$$

MDZ017>025-271200-
SOUTHERN MARYLAND

CITY           SKY/WX    TMP DP  RH WIND       PRES   REMARKS
PATUXENT RIVER CLOUDY    77  69  76 E3        30.13R
ST INIGOES     CLOUDY    77  70  79 NE6       30.12R
LEONARDTOWN*   PTCLDY    72  70  94 CALM      30.15R

$$

MDZ003>005-271200-
NORTH CENTRAL MARYLAND

CITY           SKY/WX    TMP DP  RH WIND       PRES   REMARKS
FREDERICK*     CLEAR     66  66 100 CALM      30.20R
HAGERSTOWN APT CLEAR     72  62  71 E3        30.19R

$$

MDZ501>502-271200-
WESTERN MARYLAND

CITY           SKY/WX    TMP DP  RH WIND       PRES   REMARKS
OAKLAND*       CLEAR     64  63  94 E5        30.29S
CUMBERLAND*    CLEAR     68  64  88 N5        30.24S

$$

VAZ025>031-271200-
SHENANDOAH VALLEY

CITY           SKY/WX    TMP DP  RH WIND       PRES   REMARKS
WINCHESTER*    PTCLDY    68  64  88 CALM      30.19R
FRONT ROYAL*   CLOUDY    68  68 100 CALM      30.18R
LURAY*         FOG      N/A N/A N/A CALM      30.19R VSB<1/4
NEW MARKET*    CLOUDY   N/A N/A N/A CALM      30.19R VSB<1/4
STAUNTON*      FOG       66  66 100 CALM      30.22R VSB 1/2
WAYNESBORO*    FAIR      67  66  96 MISG      30.22R

$$

WVZ021-048>050-054>055-271200-
EASTERN WEST VIRGINIA PANHANDLE

CITY           SKY/WX    TMP DP  RH WIND       PRES   REMARKS
MARTINSBURG    CLEAR     66  65  96 CALM      30.18R FOG
PETERSBURG*    CLOUDY    66  65  99 CALM      30.22R FOG

$$

VAZ036>039-050-271200-
CENTRAL FOOTHILLS

CITY           SKY/WX    TMP DP  RH WIND       PRES   REMARKS
CHARLOTTESVILL CLEAR     73  70  90 NW3       30.16R
CULPEPER*      CLEAR     71  70  96 N3        30.17R
ORANGE*          N/A     73  72  94 CALM      30.17R
GORDONSVILLE*  FAIR      72  70  94 NE3       30.15R
WARRENTON*     FAIR      70  64  81 CALM      30.15S

$$

VAZ055>057-271200-
NORTH AND CENTRAL PIEDMONT

CITY           SKY/WX    TMP DP  RH WIND       PRES   REMARKS
FREDERICKSBRG* PTCLDY    74  74 100 CALM      30.13R
STAFFORD*      CLEAR     72  71  97 CALM      30.18S FOG

$$

NCZ024-NYZ072-PAZ021-071-VAZ022-071-271200-
OTHER REGIONAL OBSERVATIONS

CITY           SKY/WX    TMP DP  RH WIND       PRES   REMARKS
NEW YORK CITY    N/A     75  59  57 MISG        N/A
PHILADELPHIA   PTCLDY    75  63  66 N5        30.16R
PITTSBURGH     CLOUDY    66  62  87 E3        30.19R
ROANOKE        CLEAR     72  70  93 CALM      30.20R
RICHMOND       PTCLDY    76  73  91 NE5       30.11R
RALEIGH        PTCLDY    75  72  90 SW5       30.11R

$$

ANZ530>537-271200-
MARINE OBSERVATIONS

STATION/POSITION TIME  TEMP    WIND        PRES
                       AIR SEA DIR/SP/G
                 (UTC) (F)     (DEG/KT/KT) (MB)
THOMAS PT LIGHT  1100   79 82   50/  7/  8 1022.2R
BALT KEY BRIDGE  1048   78      10/  6/  7 1020.9R
COVE POINT       1048   80     100/ 10/ 13 1020.8R
LEWISETTA        1048   83 83   80/ 10/ 12 1019.8R
SOLOMONS ISLAND  1048   81 84   60/  4/  5   N/A
PINEY POINT      1048           80/  3/  4   N/A

$$





USA.gov is the U.S. government's official web portal to all federal, state and local government web resources and services.